Huntington, WV

12:22 AM EST on December 16, 2019 (GMT -0500)
Tri-State / Ferguson

Weather History for KHTS - October, 2019

Change the Weather History Date:

Monday, October 21, 2019

  Actual Average Record
Temperature  
Mean Temperature 66 °F 55 °F  
Max Temperature 79 °F 67 °F 86 °F (1979)
Min Temperature 53 °F 44 °F 20 °F (1952)
Degree Days  
Heating Degree Days 0 10  
Month to date heating degree days 107 162  
Since 1 July heating degree days 107 220  
Cooling Degree Days 1 0  
Month to date cooling degree days 66 16  
Year to date cooling degree days 1511 1127  
Growing Degree Days 16 (Base 50)    
Moisture  
Dew Point 55 °F    
Average Humidity 73    
Maximum Humidity 100    
Minimum Humidity 46    
Precipitation  
Precipitation 0.03 in 0.09 in 1.57 in (1983)
Month to date precipitation 3.40 1.84  
Year to date precipitation 37.87 34.87  
Snow  
Snow 0.00 in 0.00 in T in (1989)
Month to date snowfall 0.0 0.0  
Since 1 September snowfall 0.0 0.0  
Snow Depth 0.00 in    
Sea Level Pressure  
Sea Level Pressure 29.89 in    
Wind  
Wind Speed 6 mph (SE)    
Max Wind Speed 24 mph    
Max Gust Speed 38 mph    
Visibility 10 miles    
Events Rain    
T = Trace of Precipitation, MM = Missing Value Source: NWS Daily Summary

Daily Weather History Graph

Daily Weather History Graph

Search for Another Location

Airport or City:

Astronomy

Oct. 21, 2019 Rise Set
Actual Time 7:44 AM EDT 6:44 PM EDT
Civil Twilight 7:18 AM EDT 7:11 PM EDT
Nautical Twilight 6:47 AM EDT 7:41 PM EDT
Astronomical Twilight 6:16 AM EDT 8:12 PM EDT
Moon No Moon Rise 2:59 PM EDT (10/21)
Length of Visible Light 11h 53m
Length of Day
10h 59m
Waning Gibbous, 48% of the Moon is Illuminated
Oct 21
Waning Gibbous
Oct 27
New
Nov 4
First Quarter
Nov 12
Full
Nov 19
Last Quarter

Hourly Weather History & Observations

Time (EDT) Temp. Dew Point Humidity Pressure Visibility Wind Dir Wind Speed Gust Speed Precip Events Conditions
12:40 AM 55.9 °F 54.0 °F 93% 29.99 in 10.0 mi Calm Calm - N/A   Mostly Cloudy
12:51 AM 55.9 °F 55.0 °F 97% 29.99 in 10.0 mi Calm Calm - N/A   Mostly Cloudy
1:51 AM 55.9 °F 54.0 °F 93% 29.99 in 10.0 mi Calm Calm - N/A   Overcast
2:51 AM 55.0 °F 54.0 °F 96% 29.97 in 10.0 mi Calm Calm - N/A   Overcast
3:51 AM 54.0 °F 53.1 °F 97% 29.96 in 10.0 mi East 5.8 mph - N/A   Mostly Cloudy
4:13 AM 54.0 °F 53.1 °F 97% 29.96 in 9.0 mi ESE 5.8 mph - N/A   Scattered Clouds
4:51 AM 54.0 °F 53.1 °F 97% 29.94 in 10.0 mi East 4.6 mph - N/A   Clear
5:19 AM 53.1 °F 52.0 °F 96% 29.94 in 1.8 mi ESE 5.8 mph - N/A   Partly Cloudy
5:25 AM 53.1 °F 52.0 °F 96% 29.94 in 10.0 mi East 5.8 mph - N/A   Partly Cloudy
5:51 AM 54.0 °F 53.1 °F 97% 29.94 in 10.0 mi East 4.6 mph - N/A   Clear
6:51 AM 54.0 °F 52.0 °F 93% 29.94 in 10.0 mi ESE 4.6 mph - N/A   Clear
7:51 AM 53.1 °F 51.1 °F 93% 29.92 in 10.0 mi East 4.6 mph - N/A   Clear
8:51 AM 54.0 °F 52.0 °F 93% 29.93 in 10.0 mi ESE 4.6 mph - N/A   Clear
9:02 AM 54.0 °F 52.0 °F 93% 29.94 in 10.0 mi SE 5.8 mph - N/A   Scattered Clouds
9:12 AM 54.0 °F 52.0 °F 93% 29.94 in 10.0 mi ESE 6.9 mph - N/A   Mostly Cloudy
9:51 AM 55.0 °F 53.1 °F 93% 29.94 in 10.0 mi East 5.8 mph - N/A   Scattered Clouds
10:51 AM 60.1 °F 55.0 °F 83% 29.91 in 10.0 mi ESE 3.5 mph - N/A   Clear
11:51 AM 69.1 °F 57.0 °F 65% 29.89 in 10.0 mi Variable 4.6 mph - N/A   Clear
12:51 PM 73.9 °F 57.0 °F 55% 29.86 in 10.0 mi SSW 9.2 mph - N/A   Clear
1:51 PM 77.0 °F 57.9 °F 52% 29.82 in 10.0 mi SSE 6.9 mph - N/A   Clear
2:51 PM 78.1 °F 57.0 °F 48% 29.82 in 10.0 mi Variable 6.9 mph - N/A   Mostly Cloudy
3:51 PM 79.0 °F 57.9 °F 48% 29.81 in 10.0 mi South 6.9 mph - N/A   Mostly Cloudy
4:51 PM 78.1 °F 57.9 °F 50% 29.81 in 10.0 mi SSW 4.6 mph - N/A   Partly Cloudy
5:51 PM 75.9 °F 57.0 °F 52% 29.80 in 10.0 mi South 4.6 mph - N/A   Mostly Cloudy
6:51 PM 75.9 °F 54.0 °F 46% 29.80 in 10.0 mi SSW 11.5 mph 21.9 mph N/A   Clear
7:51 PM 73.9 °F 55.0 °F 52% 29.82 in 10.0 mi SSW 4.6 mph - N/A   Overcast
8:51 PM 73.9 °F 55.0 °F 52% 29.82 in 10.0 mi SSW 8.1 mph - N/A   Mostly Cloudy
9:51 PM 73.9 °F 55.0 °F 52% 29.83 in 10.0 mi SW 13.8 mph 38.0 mph N/A   Overcast
10:51 PM 68.0 °F 59.0 °F 73% 29.84 in 10.0 mi SW 8.1 mph - 0.00 in Rain Light Rain
11:51 PM 64.9 °F 61.0 °F 87% 29.82 in 10.0 mi SSW 3.5 mph - 0.01 in Rain Light Rain